Meteo pe oră la Dziegielewo

Astăzi, 3 Martie, Miercuri

Timp Temperatura Precipitaţii Vânt Presiune Umiditate
00:00 +3°C° 0 mm 1 m/s 763 mmHg 89%
01:00 +1°C° 0 mm 0 m/s 763 mmHg 89%
02:00 +1°C° 0 mm 0 m/s 763 mmHg 89%
03:00 +1°C° 0 mm 0 m/s 762 mmHg 89%
04:00 +1°C° 0 mm 0 m/s 762 mmHg 89%
05:00 +2°C° 0 mm 1 m/s 762 mmHg 90%
06:00 +2°C° 0 mm 1 m/s 762 mmHg 91%
07:00 +2°C° 0 mm 1 m/s 762 mmHg 91%
08:00 +4°C° 0 mm 1 m/s 761 mmHg 84%
09:00 +4°C° 0 mm 2 m/s 761 mmHg 76%
10:00 +6°C° 0 mm 2 m/s 761 mmHg 69%
11:00 +7°C° 0 mm 2 m/s 760 mmHg 64%
12:00 +8°C° 0 mm 3 m/s 760 mmHg 59%
13:00 +9°C° 0 mm 3 m/s 759 mmHg 54%
14:00 +9°C° 0 mm 3 m/s 758 mmHg 57%
15:00 +9°C° 0 mm 3 m/s 758 mmHg 59%
16:00 +9°C° 0 mm 2 m/s 757 mmHg 61%
17:00 +8°C° 0 mm 3 m/s 756 mmHg 66%
18:00 +5°C° 0 mm 3 m/s 756 mmHg 72%
19:00 +4°C° 0 mm 3 m/s 755 mmHg 77%
20:00 +4°C° 0 mm 3 m/s 755 mmHg 80%
21:00 +4°C° 0 mm 3 m/s 754 mmHg 82%
22:00 +3°C° 0 mm 4 m/s 753 mmHg 84%
23:00 +3°C° 0 mm 4 m/s 753 mmHg 85%

Mâine, 4 Martie, Joi

Timp Temperatura Precipitaţii Vânt Presiune Umiditate
00:00 +3°C° 0 mm 4 m/s 752 mmHg 87%
01:00 +3°C° 0 mm 4 m/s 752 mmHg 89%
02:00 +3°C° 0 mm 4 m/s 751 mmHg 90%
03:00 +3°C° 0 mm 4 m/s 750 mmHg 91%
04:00 +2°C° 0 mm 5 m/s 749 mmHg 92%
05:00 +2°C° 0 mm 5 m/s 749 mmHg 93%
06:00 +2°C° 0 mm 5 m/s 749 mmHg 94%
07:00 +2°C° 0 mm 5 m/s 749 mmHg 95%
08:00 +2°C° 0 mm 5 m/s 749 mmHg 91%
09:00 +2°C° 0 mm 6 m/s 748 mmHg 88%
10:00 +2°C° 0 mm 6 m/s 748 mmHg 84%
11:00 +2°C° 0 mm 6 m/s 748 mmHg 82%
12:00 +2°C° 0 mm 6 m/s 748 mmHg 81%
13:00 +1°C° 0 mm 6 m/s 748 mmHg 79%
14:00 +1°C° 0 mm 5 m/s 748 mmHg 79%
15:00 +1°C° 0 mm 5 m/s 748 mmHg 78%
16:00 +1°C° 0 mm 5 m/s 748 mmHg 78%
17:00 0°C° 0 mm 5 m/s 748 mmHg 83%
18:00 0°C° 0 mm 5 m/s 748 mmHg 87%
19:00 -1°C° 0 mm 4 m/s 749 mmHg 92%
20:00 -1°C° 0 mm 4 m/s 749 mmHg 88%
21:00 -2°C° 0 mm 4 m/s 749 mmHg 84%
22:00 -2°C° 0 mm 4 m/s 750 mmHg 81%
23:00 -3°C° 0 mm 4 m/s 750 mmHg 80%

Poimâine, 5 Martie, Vineri

Timp Temperatura Precipitaţii Vânt Presiune Umiditate
00:00 -3°C° 0 mm 4 m/s 750 mmHg 80%
01:00 -3°C° 0 mm 4 m/s 751 mmHg 80%
02:00 -4°C° 0 mm 3 m/s 751 mmHg 81%
03:00 -4°C° 0 mm 3 m/s 751 mmHg 83%
04:00 -4°C° 0 mm 3 m/s 751 mmHg 85%
05:00 -4°C° 0 mm 3 m/s 752 mmHg 83%
06:00 -4°C° 0 mm 3 m/s 752 mmHg 82%
07:00 -4°C° 0 mm 3 m/s 752 mmHg 80%
08:00 -2°C° 0 mm 3 m/s 753 mmHg 71%
09:00 -1°C° 0 mm 4 m/s 753 mmHg 62%
10:00 0°C° 0 mm 4 m/s 753 mmHg 53%
11:00 0°C° 0 mm 4 m/s 753 mmHg 50%
12:00 +1°C° 0 mm 4 m/s 754 mmHg 47%
13:00 +1°C° 0 mm 5 m/s 754 mmHg 44%
14:00 +1°C° 0.1 mm 4 m/s 754 mmHg 44%
15:00 +2°C° 0.1 mm 3 m/s 754 mmHg 45%
16:00 +2°C° 0.1 mm 3 m/s 754 mmHg 45%
17:00 +1°C° 0 mm 3 m/s 755 mmHg 51%
18:00 0°C° 0 mm 3 m/s 755 mmHg 57%
19:00 -1°C° 0 mm 2 m/s 756 mmHg 63%
20:00 -2°C° 0 mm 2 m/s 756 mmHg 71%
21:00 -2°C° 0 mm 3 m/s 757 mmHg 78%
22:00 -4°C° 0 mm 3 m/s 757 mmHg 85%
23:00 -4°C° 0 mm 3 m/s 758 mmHg 82%

6 Martie, Sâmbătă

Timp Temperatura Precipitaţii Vânt Presiune Umiditate
00:00 -4°C° 0 mm 3 m/s 758 mmHg 78%
01:00 -4°C° 0 mm 4 m/s 759 mmHg 74%
02:00 -4°C° 0 mm 4 m/s 759 mmHg 72%
03:00 -4°C° 0 mm 3 m/s 759 mmHg 71%
04:00 -5°C° 0 mm 3 m/s 759 mmHg 69%
05:00 -4°C° 0 mm 3 m/s 760 mmHg 68%
06:00 -4°C° 0 mm 3 m/s 760 mmHg 67%
07:00 -4°C° 0 mm 3 m/s 760 mmHg 66%
08:00 -2°C° 0 mm 3 m/s 760 mmHg 60%
09:00 -1°C° 0 mm 3 m/s 760 mmHg 54%
10:00 -1°C° 0 mm 4 m/s 761 mmHg 49%
11:00 0°C° 0 mm 4 m/s 760 mmHg 46%
12:00 0°C° 0 mm 5 m/s 760 mmHg 44%
13:00 +1°C° 0 mm 5 m/s 760 mmHg 42%
14:00 +1°C° 0 mm 5 m/s 760 mmHg 43%
15:00 +1°C° 0 mm 5 m/s 759 mmHg 44%
16:00 +1°C° 0 mm 5 m/s 759 mmHg 45%
17:00 0°C° 0 mm 5 m/s 758 mmHg 48%
18:00 -1°C° 0 mm 5 m/s 758 mmHg 51%
19:00 -2°C° 0 mm 5 m/s 757 mmHg 54%
20:00 -3°C° 0 mm 6 m/s 757 mmHg 54%
21:00 -3°C° 0 mm 6 m/s 757 mmHg 54%
22:00 -3°C° 0 mm 7 m/s 756 mmHg 53%
23:00 -3°C° 0 mm 7 m/s 756 mmHg 57%

7 Martie, Duminică

Timp Temperatura Precipitaţii Vânt Presiune Umiditate
00:00 -3°C° 0 mm 7 m/s 755 mmHg 61%
01:00 -3°C° 0 mm 7 m/s 755 mmHg 65%
02:00 -4°C° 0 mm 8 m/s 754 mmHg 69%
03:00 -4°C° 0 mm 8 m/s 753 mmHg 74%
04:00 -4°C° 0 mm 8 m/s 753 mmHg 78%
05:00 -4°C° 0 mm 8 m/s 752 mmHg 80%
06:00 -4°C° 0 mm 8 m/s 752 mmHg 82%
07:00 -4°C° 0 mm 9 m/s 752 mmHg 84%
08:00 -3°C° 0 mm 9 m/s 752 mmHg 81%
09:00 -3°C° 0 mm 9 m/s 752 mmHg 79%
10:00 -1°C° 0 mm 9 m/s 751 mmHg 76%
11:00 -1°C° 0 mm 9 m/s 751 mmHg 74%
12:00 -1°C° 0 mm 9 m/s 751 mmHg 72%
13:00 -1°C° 0 mm 9 m/s 750 mmHg 71%
14:00 -1°C° 0 mm 9 m/s 750 mmHg 75%
15:00 -1°C° 0 mm 9 m/s 750 mmHg 79%
16:00 -1°C° 0 mm 9 m/s 750 mmHg 83%
17:00 -2°C° 0.7 mm 7 m/s 750 mmHg 83%
18:00 -3°C° 0.7 mm 6 m/s 751 mmHg 84%
19:00 -4°C° 0.7 mm 5 m/s 751 mmHg 85%
20:00 -4°C° 0.1 mm 4 m/s 751 mmHg 81%
21:00 -5°C° 0.1 mm 3 m/s 752 mmHg 77%
22:00 -4°C° 0.1 mm 2 m/s 752 mmHg 72%
23:00 -5°C° 0 mm 2 m/s 753 mmHg 74%

8 Martie, Luni

Timp Temperatura Precipitaţii Vânt Presiune Umiditate
00:00 -6°C° 0 mm 3 m/s 753 mmHg 76%
01:00 -6°C° 0 mm 3 m/s 753 mmHg 77%
02:00 -6°C° 0 mm 3 m/s 754 mmHg 77%
03:00 -6°C° 0 mm 3 m/s 754 mmHg 77%
04:00 -6°C° 0 mm 3 m/s 754 mmHg 77%
05:00 -6°C° 0 mm 3 m/s 755 mmHg 75%
06:00 -7°C° 0 mm 4 m/s 755 mmHg 74%
07:00 -7°C° 0 mm 4 m/s 755 mmHg 72%
08:00 -6°C° 0 mm 5 m/s 756 mmHg 67%
09:00 -5°C° 0 mm 5 m/s 757 mmHg 61%
10:00 -4°C° 0 mm 6 m/s 757 mmHg 56%
11:00 -4°C° 0 mm 6 m/s 757 mmHg 52%
12:00 -3°C° 0 mm 6 m/s 758 mmHg 48%
13:00 -3°C° 0 mm 6 m/s 758 mmHg 44%
14:00 -2°C° 0 mm 5 m/s 758 mmHg 44%
15:00 -2°C° 0 mm 4 m/s 759 mmHg 44%
16:00 -2°C° 0 mm 4 m/s 759 mmHg 44%
17:00 -2°C° 0 mm 3 m/s 759 mmHg 51%
18:00 -3°C° 0 mm 2 m/s 759 mmHg 58%
19:00 -4°C° 0 mm 2 m/s 760 mmHg 65%
20:00 -4°C° 0 mm 2 m/s 760 mmHg 66%
21:00 -4°C° 0 mm 2 m/s 760 mmHg 67%
22:00 -2°C° 0 mm 1 m/s 761 mmHg 68%
23:00 -4°C° 0 mm 2 m/s 761 mmHg 68%
Arată mai mult

Formular de consimțământ

Meteoprog și furnizorii noștri de servicii pot stoca și accesa date personale, precum cookies, identificatori de dispozitiv sau alte tehnologii similare pe dispozitivul dumneavoastră și procesa astfel de date pentru a personaliza conținutul și reclamele, dar și pentru a oferi caracteristici de social media și pentru a analiza traficul.

  • Stocarea și/sau accesarea informațiilor pe dispozitivul dumneavoastră

    Cookies, identificatori de dispozitiv sau alte informații pot fi stocate sau accesate pe dispozitiv în scopurile indicate mai sus.

  • Reclame și conținut personalizat, evaluarea reclamelor și a conținutului, informații despre audiențe și dezvoltarea produselor

    Reclamele și conținutul pot fi personalizate pe baza unui profil. Pot fi adăugate date suplimentare pentru a personaliza mai bine reclamele și conținutul. Performanța reclamelor și conținutului poate fi măsurată. Pot fi obținute informații despre utilizatorii care au văzut reclamele și conținutul. Aceste date pot fi utilizate pentru a dezvolta sau îmbunătăți experiența utilizatorilor, sistemele și software-ul.

Dând clic pe ‘Sunt de acord’, permiteți utilizarea cookie-urilor menționate, a identificatorilor de dispozitiv, balizelor web sau altor tehnologii similare. Setările pot fi modificate din browser-ul dispozitivului dumneavoastră.

În anumite scopuri, interesele legitime pot prima asupra consimțământului. Puteți citi mai multe informații în acest sens în Politica privind Confidențialitatea Datelor și Cookie.